GW1476 Weather Reports


time (UTC)temp
C
wind
direction
speed
KPH
gust
KPH
rain 1hr
cm
rain 24hr
cm
rain mn
cm
humidity
%
barometer
mb
20260504020620 9 225 0.0 0.0 0.00 0.00 0.00 78 1017.9
20260504020020 9 180 0.0 0.0 0.00 0.00 0.00 78 1017.9
20260504015443 9 203 0.0 0.0 0.00 0.00 0.00 78 1017.9
20260504014826 9 248 0.0 0.0 0.00 0.00 0.00 77 1017.9
20260504014244 9 225 0.0 0.0 0.00 0.00 0.00 77 1017.9
20260504013650 9 203 0.0 0.0 0.00 0.00 0.00 77 1017.9
20260504012412 10 225 0.0 0.0 0.00 0.00 0.00 74 1017.6
20260504011837 10 180 0.0 0.0 0.00 0.00 0.00 72 1017.6
20260504011214 10 203 0.0 0.0 0.00 0.00 0.00 71 1017.6
20260504010635 10 203 0.0 0.0 0.00 0.00 0.00 69 1017.9
20260504010049 11 203 0.0 0.0 0.00 0.00 0.00 68 1017.6
20260504005438 11 225 1.6 3.2 0.00 0.00 0.00 68 1017.6
20260504004247 11 203 0.0 0.0 0.00 0.00 0.00 64 1017.6
20260504003614 11 203 0.0 0.0 0.00 0.00 0.00 64 1017.6
20260504003040 12 248 0.0 0.0 0.00 0.00 0.00 61 1017.6
20260504002436 13 225 0.0 0.0 0.00 0.00 0.00 58 1017.2
20260504001818 13 203 0.0 0.0 0.00 0.00 0.00 58 1017.2
20260504001219 13 203 0.0 0.0 0.00 0.00 0.00 57 1017.2
20260504000654 14 203 0.0 0.0 0.00 0.00 0.00 54 1017.2
20260504000042 15 203 0.0 0.0 0.00 0.00 0.00 51 1017.2
20260503235412 15 203 0.0 0.0 0.00 0.00 0.00 52 1017.6
20260503234815 16 225 0.0 0.0 0.00 0.00 0.00 46 1017.6
20260503234236 17 45 0.0 0.0 0.00 0.00 0.00 45 1017.2
20260503233627 18 45 0.0 3.2 0.00 0.00 0.00 39 1017.6
20260503233035 18 45 0.0 0.0 0.00 0.00 0.00 39 1017.6
20260503232447 20 45 0.0 4.8 0.00 0.00 0.00 37 1017.6
20260503231819 18 45 3.2 4.8 0.00 0.00 0.00 37 1017.6
20260503231252 20 315 0.0 3.2 0.00 0.00 0.00 37 1017.6
20260503230636 20 270 1.6 11.3 0.00 0.00 0.00 36 1017.6
20260503230041 20 0 4.8 4.8 0.00 0.00 0.00 36 1017.6
20260503224223 20 45 3.2 4.8 0.00 0.00 0.00 36 1017.9
20260503223614 20 158 4.8 9.7 0.00 0.00 0.00 36 1017.9
20260503223014 20 68 3.2 3.2 0.00 0.00 0.00 37 1017.6
20260503222422 19 23 6.4 12.9 0.00 0.00 0.00 36 1017.9
20260503221820 20 23 12.9 16.1 0.00 0.00 0.00 36 1017.9
20260503221224 20 23 4.8 4.8 0.00 0.00 0.00 37 1017.9
20260503220654 18 45 9.7 12.9 0.00 0.00 0.00 37 1017.9
20260503220044 18 0 6.4 8.0 0.00 0.00 0.00 37 1017.9
20260503215439 18 203 8.0 9.7 0.00 0.00 0.00 37 1017.9
20260503214810 18 203 8.0 8.0 0.00 0.00 0.00 37 1017.9
20260503214224 19 338 3.2 6.4 0.00 0.00 0.00 36 1017.9
20260503213647 20 68 6.4 8.0 0.00 0.00 0.00 36 1017.9
20260503212440 19 315 6.4 11.3 0.00 0.00 0.00 37 1017.9
20260503211827 20 23 11.3 11.3 0.00 0.00 0.00 36 1017.9
20260503211227 19 113 8.0 8.0 0.00 0.00 0.00 37 1018.2
20260503210647 18 158 0.0 6.4 0.00 0.00 0.00 38 1018.2
20260503210017 19 68 3.2 3.2 0.00 0.00 0.00 37 1018.2
20260503205430 18 180 3.2 16.1 0.00 0.00 0.00 37 1018.2
20260503204242 19 248 3.2 8.0 0.00 0.00 0.00 36 1018.6
20260503203038 20 45 8.0 9.7 0.00 0.00 0.00 36 1018.6
20260503202422 18 225 1.6 9.7 0.00 0.00 0.00 35 1018.9
20260503201816 18 225 6.4 6.4 0.00 0.00 0.00 37 1018.9
20260503201234 19 338 9.7 11.3 0.00 0.00 0.00 36 1019.3
20260503200625 18 45 6.4 6.4 0.00 0.00 0.00 36 1019.3
20260503200026 18 270 4.8 4.8 0.00 0.00 0.00 38 1019.3
20260503195409 18 225 6.4 12.9 0.00 0.00 0.00 38 1019.6
20260503194821 20 315 11.3 11.3 0.00 0.00 0.00 36 1019.6
20260503194241 19 203 4.8 6.4 0.00 0.00 0.00 36 1019.6
20260503193621 19 248 4.8 9.7 0.00 0.00 0.00 36 1019.6
20260503193043 20 0 6.4 6.4 0.00 0.00 0.00 35 1019.9
20260503192436 19 23 6.4 6.4 0.00 0.00 0.00 38 1019.9
20260503191842 18 180 6.4 9.7 0.00 0.00 0.00 37 1020.3
20260503191249 18 180 4.8 9.7 0.00 0.00 0.00 36 1020.3
20260503190636 19 0 3.2 8.0 0.00 0.00 0.00 38 1020.3
20260503190052 20 225 6.4 6.4 0.00 0.00 0.00 36 1020.3
20260503185423 21 45 3.2 9.7 0.00 0.00 0.00 32 1020.6
20260503184846 21 270 1.6 6.4 0.00 0.00 0.00 36 1020.6
20260503184216 20 180 1.6 4.8 0.00 0.00 0.00 36 1020.6
20260503183031 21 23 3.2 4.8 0.00 0.00 0.00 33 1020.9
20260503182446 21 203 9.7 9.7 0.00 0.00 0.00 37 1020.9
20260503181853 18 225 4.8 6.4 0.00 0.00 0.00 38 1020.9
20260503181236 17 315 3.2 6.4 0.00 0.00 0.00 39 1020.9
20260503180651 17 158 4.8 9.7 0.00 0.00 0.00 40 1020.9
20260503180027 18 270 4.8 11.3 0.00 0.00 0.00 37 1021.3
20260503175417 17 158 3.2 8.0 0.00 0.00 0.00 39 1021.3
20260503174820 17 0 3.2 6.4 0.00 0.00 0.00 39 1021.3
20260503174213 17 315 1.6 9.7 0.00 0.00 0.00 39 1021.3
20260503173628 17 68 4.8 4.8 0.00 0.00 0.00 41 1021.6
20260503173035 17 225 3.2 3.2 0.00 0.00 0.00 43 1021.6
20260503172413 16 180 3.2 6.4 0.00 0.00 0.00 44 1021.6
20260503171814 16 225 1.6 3.2 0.00 0.00 0.00 44 1021.6
20260503171254 16 180 6.4 6.4 0.00 0.00 0.00 41 1022.0
20260503150630 14 135 3.2 4.8 0.00 0.00 0.00 51 1023.3
20260503130620 7 23 0.0 0.0 0.00 0.00 0.00 84 1023.7
20260503110645 0 338 0.0 0.0 0.00 0.00 0.00 99 1022.3
20260503081246 1 203 0.0 0.0 0.00 0.00 0.00 99 1021.3
20260503072411 1 248 0.0 0.0 0.00 0.00 0.00 99 1020.9
20260503071838 1 225 0.0 0.0 0.00 0.00 0.00 99 1020.9
20260503071227 1 203 0.0 0.0 0.00 0.00 0.00 99 1020.6
20260503070623 1 203 0.0 0.0 0.00 0.00 0.00 99 1020.6
20260503054237 3 293 0.0 0.0 0.00 0.00 0.00 95 1020.6
20260503053623 4 225 0.0 0.0 0.00 0.00 0.00 95 1020.6
20260503053051 4 90 0.0 0.0 0.00 0.00 0.00 95 1020.6
20260503052424 4 158 0.0 0.0 0.00 0.00 0.00 95 1020.6
20260503051854 4 203 0.0 0.0 0.00 0.00 0.00 95 1020.6
20260503051244 4 225 0.0 0.0 0.00 0.00 0.00 95 1020.6
20260503050649 4 180 0.0 0.0 0.00 0.00 0.00 95 1020.6
20260503050053 4 203 1.6 1.6 0.00 0.00 0.00 95 1020.6
20260503045418 4 158 1.6 1.6 0.00 0.00 0.00 95 1020.6
20260503044845 4 225 0.0 0.0 0.00 0.00 0.00 95 1020.6
20260503044242 4 225 0.0 0.0 0.00 0.00 0.00 95 1020.3
20260503043639 4 180 0.0 0.0 0.00 0.00 0.00 94 1020.3
20260503043016 3 225 0.0 0.0 0.00 0.00 0.00 93 1020.3
20260503042443 4 203 0.0 0.0 0.00 0.00 0.00 93 1020.3
20260503041823 4 180 0.0 0.0 0.00 0.00 0.00 94 1019.9
20260503040623 5 225 0.0 0.0 0.00 0.00 0.00 93 1019.9
20260503040047 5 270 0.0 0.0 0.00 0.00 0.00 94 1019.9
20260503035451 5 203 0.0 1.6 0.00 0.00 0.00 95 1019.9
20260503034851 4 23 1.6 1.6 0.00 0.00 0.00 93 1019.9
20260503034216 5 203 0.0 0.0 0.00 0.00 0.00 92 1019.9
20260503033638 5 293 0.0 0.0 0.00 0.00 0.00 90 1019.9
20260503032419 5 203 0.0 0.0 0.00 0.00 0.00 90 1019.6
20260503031839 5 203 0.0 0.0 0.00 0.00 0.00 89 1019.6
20260503031244 6 203 0.0 0.0 0.00 0.00 0.00 88 1019.6
20260503030642 6 225 0.0 0.0 0.00 0.00 0.00 85 1019.6
20260503030024 6 23 0.0 0.0 0.00 0.00 0.00 86 1019.6
20260503025424 6 270 0.0 0.0 0.00 0.00 0.00 85 1019.6
20260503024829 6 203 0.0 0.0 0.00 0.00 0.00 84 1019.6
20260503024233 7 180 0.0 0.0 0.00 0.00 0.00 81 1019.6
20260503023618 7 158 0.0 1.6 0.00 0.00 0.00 82 1019.6
20260503023036 7 180 3.2 3.2 0.00 0.00 0.00 81 1019.3
20260503022452 7 203 0.0 3.2 0.00 0.00 0.00 82 1019.3
20260503021852 7 203 0.0 4.8 0.00 0.00 0.00 79 1019.3
20260503021241 8 203 0.0 0.0 0.00 0.00 0.00 82 1019.3